QPF
0.09 0.09 0.12 0.11 0.08 0.05 0.06 0.07 0.08 0.10 0.06 0.03 0.03 0.02 0.02 0.02 0.02 0.03 0.03 0.02 0.01 0.02 0.02 0.02 0.02 0.02 0.02 0.02 0.01 0.02 0.02 0.03 0.03 0.03 0.04 0.06 0.07 0.06 0.05 0.04 0.03 0.03 0.02
0.08 0.08 0.09 0.09 0.07 0.04 0.04 0.04 0.05 0.05 0.05 0.05 0.04 0.04 0.04 0.04 0.04 0.02 0.03 0.03 0.02 0.02 0.02 0.02 0.02 0.02 0.03 0.02 0.02 0.02 0.02 0.02 0.02 0.02 0.02 0.03 0.04 0.04 0.04 0.05 0.05 0.04 0.03
0.05 0.05 0.05 0.05 0.05 0.05 0.06 0.04 0.04 0.04 0.04 0.04 0.05 0.06 0.06 0.05 0.04 0.03 0.03 0.04 0.03 0.02 0.01 0.01 0.02 0.03 0.03 0.03 0.03 0.02 0.02 0.03 0.03 0.03 0.02 0.02 0.03 0.03 0.03 0.05 0.06 0.05 0.04
0.05 0.04 0.03 0.03 0.04 0.04 0.05 0.04 0.04 0.04 0.05 0.04 0.05 0.05 0.05 0.05 0.05 0.04 0.03 0.04 0.04 0.02 0.02 0.03 0.03 0.04 0.04 0.05 0.05 0.02 0.02 0.03 0.03 0.03 0.03 0.03 0.04 0.04 0.03 0.02 0.02 0.03 0.03
0.06 0.05 0.05 0.05 0.04 0.04 0.04 0.03 0.04 0.04 0.06 0.05 0.04 0.06 0.05 0.06 0.05 0.05 0.06 0.05 0.06 0.05 0.04 0.03 0.03 0.04 0.04 0.04 0.04 0.05 0.05 0.04 0.04 0.04 0.04 0.05 0.05 0.04 0.04 0.03 0.02 0.03 0.02
0.06 0.05 0.05 0.05 0.03 0.04 0.05 0.05 0.05 0.06 0.07 0.07 0.06 0.06 0.05 0.04 0.04 0.07 0.09 0.09 0.11 0.09 0.07 0.06 0.07 0.05 0.05 0.05 0.05 0.05 0.06 0.08 0.07 0.06 0.05 0.05 0.05 0.04 0.03 0.02 0.02 0.02 0.02
0.04 0.05 0.05 0.06 0.05 0.05 0.06 0.05 0.07 0.09 0.10 0.09 0.11 0.10 0.07 0.03 0.03 0.03 0.04 0.05 0.06 0.07 0.09 0.10 0.14 0.12 0.08 0.06 0.05 0.04 0.05 0.07 0.10 0.09 0.06 0.05 0.05 0.05 0.04 0.04 0.04 0.04 0.04
0.04 0.05 0.07 0.06 0.08 0.08 0.08 0.08 0.10 0.12 0.11 0.11 0.12 0.14 0.13 0.11 0.07 0.04 0.04 0.06 0.08 0.09 0.11 0.14 0.19 0.17 0.14 0.12 0.08 0.04 0.04 0.06 0.08 0.10 0.10 0.07 0.06 0.05 0.06 0.07 0.07 0.06 0.05
0.04 0.06 0.07 0.09 0.12 0.10 0.10 0.10 0.11 0.12 0.11 0.11 0.10 0.13 0.14 0.15 0.12 0.08 0.08 0.10 0.11 0.12 0.14 0.17 0.17 0.17 0.18 0.16 0.13 0.09 0.06 0.06 0.08 0.12 0.14 0.13 0.10 0.08 0.06 0.06 0.07 0.07 0.05
0.04 0.07 0.13 0.13 0.13 0.12 0.13 0.11 0.12 0.11 0.10 0.10 0.09 0.09 0.09 0.10 0.11 0.11 0.11 0.10 0.12 0.11 0.10 0.12 0.14 0.16 0.19 0.18 0.16 0.14 0.12 0.09 0.07 0.09 0.12 0.13 0.13 0.10 0.08 0.06 0.06 0.06 0.06
0.07 0.07 0.10 0.10 0.10 0.11 0.12 0.12 0.12 0.10 0.08 0.08 0.08 0.08 0.09 0.10 0.10 0.11 0.11 0.10 0.11 0.07 0.04 0.06 0.06 0.08 0.09 0.11 0.11 0.10 0.09 0.07 0.06 0.05 0.07 0.08 0.10 0.10 0.08 0.06 0.06 0.06 0.06
0.04 0.03 0.04 0.07 0.09 0.10 0.11 0.11 0.11 0.08 0.07 0.07 0.08 0.08 0.10 0.11 0.11 0.14 0.14 0.13 0.12 0.07 0.05 0.04 0.04 0.05 0.05 0.04 0.04 0.07 0.08 0.08 0.06 0.05 0.05 0.06 0.07 0.09 0.10 0.09 0.07 0.07 0.08
0.04 0.04 0.04 0.06 0.07 0.08 0.08 0.08 0.08 0.08 0.07 0.07 0.09 0.09 0.09 0.10 0.09 0.11 0.13 0.14 0.14 0.09 0.06 0.05 0.05 0.05 0.04 0.05 0.05 0.05 0.07 0.07 0.06 0.05 0.05 0.05 0.06 0.07 0.09 0.09 0.09 0.08 0.08
0.03 0.04 0.04 0.05 0.06 0.05 0.05 0.07 0.07 0.07 0.08 0.09 0.09 0.10 0.11 0.10 0.08 0.10 0.12 0.14 0.16 0.14 0.11 0.10 0.08 0.05 0.04 0.05 0.06 0.05 0.04 0.04 0.04 0.04 0.04 0.05 0.05 0.06 0.07 0.08 0.07 0.08 0.10
0.03 0.03 0.02 0.03 0.04 0.05 0.05 0.07 0.07 0.08 0.11 0.12 0.12 0.14 0.11 0.07 0.07 0.08 0.11 0.16 0.15 0.13 0.12 0.14 0.14 0.05 0.04 0.05 0.08 0.05 0.03 0.02 0.02 0.02 0.03 0.03 0.03 0.04 0.05 0.05 0.04 0.06 0.07
0.04 0.03 0.03 0.03 0.03 0.04 0.06 0.08 0.07 0.08 0.09 0.09 0.10 0.10 0.08 0.06 0.08 0.08 0.10 0.10 0.10 0.10 0.10 0.09 0.11 0.08 0.07 0.05 0.06 0.04 0.05 0.03 0.02 0.02 0.02 0.02 0.03 0.03 0.04 0.03 0.04 0.05 0.06
0.02 0.02 0.03 0.04 0.04 0.04 0.06 0.09 0.11 0.11 0.08 0.07 0.07 0.08 0.07 0.08 0.08 0.08 0.10 0.10 0.10 0.11 0.09 0.09 0.09 0.08 0.07 0.05 0.05 0.05 0.05 0.04 0.03 0.02 0.02 0.02 0.03 0.02 0.03 0.04 0.05 0.05 0.06
0.03 0.02 0.02 0.03 0.03 0.04 0.05 0.05 0.06 0.12 0.11 0.08 0.08 0.08 0.07 0.07 0.08 0.07 0.09 0.09 0.11 0.14 0.10 0.08 0.09 0.07 0.06 0.05 0.05 0.06 0.06 0.05 0.03 0.03 0.04 0.04 0.03 0.02 0.02 0.04 0.04 0.05 0.06
0.02 0.02 0.02 0.02 0.02 0.03 0.04 0.04 0.05 0.08 0.09 0.08 0.08 0.05 0.05 0.07 0.07 0.07 0.07 0.08 0.09 0.10 0.10 0.08 0.08 0.08 0.07 0.06 0.05 0.06 0.06 0.05 0.03 0.04 0.04 0.03 0.03 0.02 0.03 0.03 0.04 0.05 0.06
0.02 0.02 0.02 0.03 0.04 0.05 0.05 0.07 0.08 0.08 0.08 0.07 0.06 0.05 0.05 0.06 0.07 0.07 0.05 0.05 0.05 0.07 0.09 0.11 0.09 0.08 0.07 0.06 0.05 0.04 0.04 0.05 0.03 0.02 0.02 0.01 0.01 0.01 0.01 0.02 0.03 0.04 0.04
0.03 0.04 0.04 0.05 0.05 0.06 0.07 0.09 0.09 0.10 0.09 0.08 0.06 0.04 0.03 0.04 0.04 0.04 0.03 0.04 0.04 0.06 0.09 0.11 0.11 0.08 0.07 0.07 0.06 0.05 0.05 0.04 0.02 0.01 0.01 0.01 0.00 0.00 0.00 0.01 0.01 0.01 0.02
0.04 0.05 0.05 0.07 0.07 0.07 0.13 0.11 0.10 0.09 0.08 0.05 0.04 0.04 0.02 0.02 0.03 0.03 0.02 0.02 0.03 0.04 0.06 0.07 0.07 0.08 0.09 0.08 0.07 0.05 0.04 0.03 0.02 0.01 0.01 0.00 0.00 0.00 0.01 0.01 0.01 0.01 0.01
0.04 0.05 0.07 0.09 0.11 0.14 0.13 0.07 0.06 0.05 0.05 0.04 0.03 0.03 0.02 0.01 0.03 0.02 0.03 0.03 0.03 0.03 0.03 0.03 0.04 0.06 0.07 0.06 0.05 0.04 0.04 0.03 0.02 0.01 0.02 0.01 0.01 0.01 0.00 0.01 0.01 0.01 0.00
0.05 0.05 0.07 0.09 0.10 0.10 0.07 0.03 0.02 0.02 0.03 0.04 0.04 0.03 0.02 0.02 0.03 0.03 0.03 0.03 0.03 0.03 0.02 0.01 0.01 0.02 0.03 0.04 0.03 0.03 0.02 0.02 0.01 0.02 0.02 0.02 0.01 0.01 0.01 0.01 0.01 0.01 0.01
0.05 0.05 0.05 0.05 0.07 0.07 0.06 0.03 0.02 0.02 0.02 0.03 0.03 0.03 0.03 0.03 0.04 0.03 0.03 0.02 0.02 0.02 0.02 0.02 0.02 0.02 0.02 0.03 0.03 0.03 0.01 0.02 0.02 0.02 0.02 0.02 0.02 0.02 0.02 0.01 0.01 0.01 0.02
0.05 0.06 0.06 0.06 0.06 0.05 0.04 0.03 0.03 0.03 0.03 0.03 0.03 0.04 0.04 0.04 0.04 0.04 0.03 0.02 0.02 0.03 0.04 0.04 0.03 0.02 0.02 0.02 0.02 0.02 0.02 0.02 0.02 0.01 0.01 0.02 0.02 0.02 0.02 0.01 0.02 0.02 0.02
MSLP
1015.13 1015.36 1015.52 1015.63 1015.73 1015.85 1015.97 1016.10 1016.21 1016.27 1016.28 1016.26 1016.23 1016.25 1016.35 1016.58 1016.95 1017.44 1018.01 1018.60 1019.15 1019.61 1019.96 1020.19 1020.33 1020.40 1020.46 1020.53 1020.63 1020.78 1020.95 1021.15 1021.34 1021.52 1021.70 1021.87 1022.04 1022.23 1022.42 1022.62 1022.80 1022.95 1023.07
1015.20 1015.47 1015.65 1015.79 1015.90 1016.02 1016.15 1016.28 1016.39 1016.47 1016.51 1016.52 1016.53 1016.56 1016.65 1016.85 1017.15 1017.56 1018.04 1018.55 1019.04 1019.47 1019.82 1020.09 1020.28 1020.43 1020.56 1020.69 1020.84 1021.00 1021.17 1021.35 1021.52 1021.68 1021.83 1021.99 1022.16 1022.34 1022.52 1022.71 1022.88 1023.02 1023.13
1015.20 1015.49 1015.70 1015.87 1016.02 1016.16 1016.31 1016.46 1016.60 1016.71 1016.79 1016.84 1016.88 1016.93 1017.01 1017.16 1017.39 1017.70 1018.06 1018.46 1018.86 1019.23 1019.57 1019.86 1020.11 1020.33 1020.55 1020.75 1020.95 1021.14 1021.32 1021.49 1021.63 1021.76 1021.88 1022.01 1022.15 1022.32 1022.50 1022.68 1022.85 1023.00 1023.11
1015.12 1015.43 1015.67 1015.88 1016.06 1016.24 1016.42 1016.60 1016.78 1016.93 1017.06 1017.16 1017.24 1017.30 1017.38 1017.49 1017.64 1017.84 1018.08 1018.35 1018.64 1018.94 1019.24 1019.53 1019.81 1020.10 1020.38 1020.65 1020.91 1021.14 1021.34 1021.49 1021.61 1021.71 1021.80 1021.89 1022.02 1022.17 1022.34 1022.53 1022.71 1022.87 1023.00
1015.01 1015.31 1015.58 1015.81 1016.03 1016.24 1016.45 1016.67 1016.88 1017.08 1017.26 1017.41 1017.53 1017.63 1017.72 1017.80 1017.89 1017.99 1018.11 1018.26 1018.43 1018.62 1018.85 1019.11 1019.40 1019.72 1020.05 1020.38 1020.68 1020.95 1021.17 1021.32 1021.43 1021.51 1021.57 1021.65 1021.75 1021.89 1022.06 1022.26 1022.46 1022.64 1022.81
1014.89 1015.18 1015.45 1015.70 1015.94 1016.17 1016.41 1016.65 1016.89 1017.13 1017.35 1017.55 1017.72 1017.86 1017.97 1018.05 1018.10 1018.13 1018.15 1018.18 1018.22 1018.30 1018.44 1018.63 1018.89 1019.20 1019.55 1019.91 1020.26 1020.56 1020.80 1020.98 1021.09 1021.17 1021.23 1021.30 1021.40 1021.53 1021.70 1021.91 1022.12 1022.34 1022.54
1014.81 1015.07 1015.32 1015.58 1015.82 1016.07 1016.32 1016.56 1016.82 1017.07 1017.32 1017.56 1017.78 1017.97 1018.12 1018.21 1018.25 1018.24 1018.18 1018.11 1018.04 1018.00 1018.03 1018.13 1018.32 1018.59 1018.92 1019.28 1019.65 1019.97 1020.25 1020.46 1020.61 1020.71 1020.79 1020.87 1020.98 1021.12 1021.30 1021.51 1021.74 1021.98 1022.20
1014.77 1015.00 1015.23 1015.48 1015.72 1015.96 1016.20 1016.44 1016.68 1016.93 1017.20 1017.46 1017.72 1017.95 1018.14 1018.27 1018.32 1018.29 1018.18 1018.03 1017.86 1017.71 1017.62 1017.62 1017.71 1017.91 1018.19 1018.53 1018.89 1019.24 1019.55 1019.80 1020.00 1020.15 1020.27 1020.39 1020.53 1020.68 1020.87 1021.09 1021.32 1021.56 1021.79
1014.77 1014.96 1015.18 1015.41 1015.64 1015.87 1016.09 1016.31 1016.53 1016.76 1017.01 1017.28 1017.56 1017.83 1018.05 1018.21 1018.29 1018.26 1018.13 1017.93 1017.68 1017.43 1017.23 1017.11 1017.09 1017.19 1017.40 1017.69 1018.03 1018.38 1018.72 1019.03 1019.29 1019.50 1019.69 1019.86 1020.04 1020.22 1020.42 1020.64 1020.86 1021.09 1021.31
1014.75 1014.93 1015.14 1015.36 1015.59 1015.80 1016.00 1016.19 1016.37 1016.57 1016.80 1017.05 1017.33 1017.61 1017.86 1018.05 1018.15 1018.13 1018.00 1017.77 1017.47 1017.15 1016.85 1016.61 1016.48 1016.48 1016.59 1016.81 1017.11 1017.46 1017.82 1018.16 1018.48 1018.77 1019.03 1019.26 1019.48 1019.70 1019.91 1020.12 1020.33 1020.54 1020.74
1014.66 1014.84 1015.05 1015.28 1015.52 1015.73 1015.92 1016.08 1016.23 1016.39 1016.57 1016.79 1017.04 1017.31 1017.57 1017.77 1017.90 1017.91 1017.79 1017.55 1017.23 1016.85 1016.47 1016.15 1015.91 1015.80 1015.81 1015.95 1016.19 1016.50 1016.86 1017.23 1017.59 1017.94 1018.26 1018.55 1018.82 1019.06 1019.29 1019.50 1019.70 1019.89 1020.07
1014.45 1014.64 1014.87 1015.13 1015.38 1015.61 1015.80 1015.95 1016.07 1016.19 1016.33 1016.50 1016.71 1016.95 1017.19 1017.40 1017.54 1017.57 1017.47 1017.25 1016.93 1016.53 1016.11 1015.72 1015.40 1015.19 1015.10 1015.14 1015.30 1015.55 1015.87 1016.24 1016.62 1017.00 1017.37 1017.71 1018.01 1018.29 1018.53 1018.74 1018.94 1019.12 1019.29
1014.07 1014.29 1014.56 1014.85 1015.14 1015.40 1015.60 1015.75 1015.86 1015.94 1016.04 1016.16 1016.33 1016.53 1016.74 1016.94 1017.09 1017.14 1017.07 1016.89 1016.59 1016.20 1015.77 1015.35 1014.96 1014.67 1014.49 1014.43 1014.49 1014.66 1014.92 1015.24 1015.60 1015.99 1016.36 1016.73 1017.06 1017.36 1017.62 1017.84 1018.05 1018.23 1018.41
1013.56 1013.81 1014.11 1014.45 1014.77 1015.06 1015.29 1015.45 1015.55 1015.62 1015.68 1015.76 1015.88 1016.03 1016.22 1016.40 1016.55 1016.62 1016.60 1016.47 1016.22 1015.88 1015.47 1015.04 1014.63 1014.28 1014.02 1013.86 1013.82 1013.88 1014.04 1014.29 1014.59 1014.94 1015.29 1015.65 1015.98 1016.29 1016.57 1016.82 1017.04 1017.25 1017.46
1012.95 1013.23 1013.57 1013.94 1014.29 1014.61 1014.87 1015.05 1015.15 1015.21 1015.24 1015.29 1015.36 1015.48 1015.63 1015.80 1015.95 1016.05 1016.08 1016.01 1015.84 1015.57 1015.22 1014.83 1014.42 1014.04 1013.72 1013.47 1013.32 1013.27 1013.31 1013.45 1013.66 1013.93 1014.23 1014.54 1014.86 1015.16 1015.44 1015.71 1015.96 1016.20 1016.44
1012.34 1012.63 1012.98 1013.37 1013.75 1014.09 1014.36 1014.55 1014.66 1014.72 1014.74 1014.76 1014.80 1014.89 1015.01 1015.16 1015.32 1015.46 1015.54 1015.54 1015.46 1015.28 1015.02 1014.69 1014.32 1013.94 1013.58 1013.27 1013.02 1012.86 1012.78 1012.79 1012.89 1013.05 1013.26 1013.50 1013.77 1014.04 1014.31 1014.58 1014.84 1015.12 1015.40
1011.78 1012.08 1012.43 1012.81 1013.19 1013.53 1013.81 1014.01 1014.13 1014.18 1014.20 1014.20 1014.22 1014.28 1014.38 1014.53 1014.69 1014.86 1014.99 1015.08 1015.08 1015.01 1014.85 1014.60 1014.30 1013.95 1013.59 1013.24 1012.93 1012.67 1012.48 1012.36 1012.33 1012.37 1012.47 1012.62 1012.80 1013.01 1013.24 1013.49 1013.75 1014.03 1014.34
1011.32 1011.61 1011.95 1012.32 1012.68 1013.01 1013.28 1013.48 1013.60 1013.66 1013.67 1013.66 1013.67 1013.71 1013.79 1013.92 1014.09 1014.28 1014.46 1014.61 1014.71 1014.73 1014.67 1014.53 1014.30 1014.02 1013.68 1013.33 1012.98 1012.65 1012.37 1012.14 1011.99 1011.91 1011.89 1011.92 1012.00 1012.13 1012.28 1012.47 1012.70 1012.96 1013.27
1010.94 1011.23 1011.55 1011.89 1012.23 1012.55 1012.80 1012.99 1013.11 1013.17 1013.19 1013.18 1013.18 1013.20 1013.27 1013.39 1013.55 1013.75 1013.96 1014.15 1014.31 1014.42 1014.45 1014.41 1014.27 1014.06 1013.77 1013.45 1013.09 1012.73 1012.39 1012.09 1011.84 1011.64 1011.50 1011.42 1011.38 1011.40 1011.45 1011.56 1011.72 1011.93 1012.19
1010.60 1010.89 1011.20 1011.52 1011.84 1012.14 1012.38 1012.57 1012.69 1012.76 1012.78 1012.77 1012.77 1012.79 1012.84 1012.94 1013.08 1013.27 1013.48 1013.69 1013.90 1014.06 1014.16 1014.19 1014.14 1014.00 1013.78 1013.50 1013.18 1012.82 1012.47 1012.12 1011.80 1011.52 1011.27 1011.07 1010.92 1010.81 1010.75 1010.74 1010.80 1010.93 1011.13
1010.22 1010.52 1010.83 1011.15 1011.46 1011.75 1011.99 1012.19 1012.32 1012.40 1012.44 1012.45 1012.45 1012.46 1012.50 1012.58 1012.69 1012.85 1013.04 1013.24 1013.45 1013.63 1013.77 1013.85 1013.86 1013.79 1013.64 1013.43 1013.15 1012.83 1012.49 1012.13 1011.78 1011.44 1011.11 1010.82 1010.55 1010.32 1010.14 1010.02 1009.96 1009.99 1010.11
1009.73 1010.06 1010.39 1010.72 1011.04 1011.34 1011.60 1011.81 1011.97 1012.08 1012.15 1012.18 1012.20 1012.22 1012.25 1012.30 1012.39 1012.50 1012.65 1012.82 1012.99 1013.16 1013.30 1013.40 1013.44 1013.42 1013.33 1013.17 1012.95 1012.69 1012.38 1012.05 1011.69 1011.33 1010.96 1010.59 1010.24 1009.91 1009.62 1009.38 1009.22 1009.15 1009.18
1009.11 1009.47 1009.84 1010.20 1010.54 1010.87 1011.15 1011.40 1011.60 1011.75 1011.86 1011.94 1011.99 1012.03 1012.06 1012.10 1012.15 1012.23 1012.32 1012.43 1012.55 1012.67 1012.78 1012.86 1012.91 1012.90 1012.85 1012.74 1012.58 1012.37 1012.12 1011.82 1011.49 1011.14 1010.75 1010.35 1009.94 1009.55 1009.17 1008.85 1008.60 1008.45 1008.40
1008.36 1008.77 1009.17 1009.57 1009.95 1010.31 1010.63 1010.92 1011.18 1011.39 1011.56 1011.69 1011.79 1011.86 1011.92 1011.95 1011.99 1012.02 1012.06 1012.11 1012.16 1012.22 1012.27 1012.30 1012.32 1012.31 1012.27 1012.19 1012.06 1011.90 1011.70 1011.46 1011.17 1010.85 1010.48 1010.08 1009.65 1009.22 1008.81 1008.43 1008.13 1007.91 1007.81
1007.57 1008.01 1008.45 1008.88 1009.29 1009.68 1010.05 1010.39 1010.70 1010.97 1011.21 1011.41 1011.57 1011.69 1011.78 1011.84 1011.87 1011.88 1011.87 1011.86 1011.85 1011.83 1011.81 1011.79 1011.76 1011.71 1011.65 1011.57 1011.47 1011.34 1011.19 1010.99 1010.76 1010.48 1010.15 1009.78 1009.37 1008.94 1008.52 1008.13 1007.80 1007.55 1007.42
1006.81 1007.28 1007.74 1008.19 1008.63 1009.05 1009.45 1009.83 1010.18 1010.51 1010.82 1011.08 1011.31 1011.49 1011.63 1011.72 1011.76 1011.77 1011.74 1011.68 1011.61 1011.53 1011.44 1011.35 1011.26 1011.16 1011.07 1010.97 1010.87 1010.76 1010.63 1010.48 1010.29 1010.06 1009.78 1009.46 1009.09 1008.70 1008.30 1007.93 1007.60 1007.35 1007.19
Thickness
5767 5765 5765 5764 5764 5763 5763 5762 5761 5761 5761 5762 5762 5763 5763 5762 5759 5756 5752 5750 5748 5747 5745 5744 5743 5741 5740 5739 5738 5737 5736 5735 5734 5733 5732 5731 5729 5727 5725 5724 5722 5721 5720
5767 5766 5765 5764 5764 5764 5764 5763 5762 5762 5762 5762 5762 5762 5762 5761 5759 5756 5752 5750 5748 5746 5745 5744 5743 5741 5740 5739 5737 5736 5736 5734 5733 5732 5731 5730 5728 5727 5725 5724 5722 5721 5720
5768 5767 5766 5765 5765 5765 5765 5764 5764 5763 5762 5762 5761 5761 5760 5759 5758 5756 5753 5750 5748 5746 5745 5744 5743 5741 5740 5738 5737 5736 5735 5733 5732 5731 5730 5729 5727 5726 5725 5723 5722 5721 5720
5770 5769 5768 5766 5766 5766 5765 5765 5764 5762 5761 5761 5760 5760 5759 5758 5757 5756 5755 5753 5750 5748 5746 5744 5743 5741 5740 5738 5737 5735 5734 5732 5731 5730 5729 5728 5727 5726 5724 5723 5722 5721 5720
5771 5770 5768 5767 5767 5767 5766 5765 5764 5762 5760 5759 5759 5759 5758 5757 5757 5756 5756 5754 5751 5749 5747 5745 5743 5742 5740 5738 5737 5735 5733 5732 5731 5729 5728 5727 5726 5725 5724 5722 5721 5720 5719
5772 5771 5770 5768 5768 5767 5765 5764 5762 5762 5760 5759 5760 5758 5757 5757 5756 5756 5755 5754 5752 5751 5748 5746 5743 5741 5739 5738 5736 5734 5733 5732 5730 5729 5727 5726 5725 5724 5723 5722 5720 5719 5718
5773 5771 5770 5769 5768 5767 5765 5765 5763 5761 5759 5760 5755 5752 5754 5757 5755 5755 5754 5753 5752 5751 5748 5746 5743 5741 5739 5737 5735 5733 5732 5731 5730 5728 5727 5725 5724 5723 5722 5721 5720 5718 5717
5773 5773 5771 5770 5769 5768 5766 5765 5763 5759 5758 5759 5753 5746 5742 5744 5749 5753 5752 5750 5749 5748 5747 5745 5742 5740 5738 5736 5734 5732 5731 5730 5728 5727 5726 5725 5724 5722 5721 5720 5719 5718 5716
5774 5772 5771 5770 5769 5768 5766 5764 5763 5759 5755 5757 5757 5748 5739 5735 5740 5746 5747 5747 5746 5745 5744 5743 5741 5738 5736 5734 5732 5730 5729 5728 5727 5725 5724 5723 5722 5721 5720 5719 5718 5716 5715
5775 5773 5771 5770 5768 5768 5766 5764 5764 5761 5757 5753 5754 5754 5750 5747 5739 5734 5739 5743 5744 5742 5741 5740 5738 5736 5734 5732 5730 5728 5726 5725 5724 5722 5721 5720 5719 5719 5718 5717 5715 5714 5713
5775 5774 5772 5770 5768 5766 5765 5764 5762 5760 5758 5755 5752 5751 5750 5749 5746 5736 5730 5733 5736 5738 5738 5737 5735 5733 5731 5729 5726 5724 5723 5722 5720 5719 5718 5717 5716 5715 5714 5713 5712 5711 5710
5775 5774 5772 5770 5768 5766 5764 5763 5761 5759 5757 5755 5754 5752 5749 5745 5741 5738 5732 5730 5730 5733 5735 5734 5732 5730 5728 5726 5723 5721 5719 5717 5715 5714 5713 5712 5711 5710 5710 5709 5708 5706 5705
5773 5772 5773 5770 5768 5766 5764 5763 5760 5758 5757 5754 5752 5751 5750 5748 5748 5742 5735 5731 5728 5729 5730 5730 5729 5728 5725 5722 5719 5717 5714 5712 5710 5709 5707 5706 5705 5705 5704 5703 5703 5702 5700
5774 5773 5771 5769 5767 5765 5764 5761 5759 5757 5756 5753 5751 5749 5748 5748 5748 5743 5737 5731 5724 5723 5723 5724 5725 5723 5721 5718 5714 5712 5709 5707 5706 5704 5702 5701 5700 5699 5698 5697 5696 5695 5695
5774 5772 5770 5768 5766 5764 5762 5759 5756 5754 5752 5750 5748 5747 5745 5745 5745 5743 5740 5735 5726 5718 5716 5719 5718 5719 5717 5714 5710 5707 5704 5702 5700 5698 5696 5695 5693 5692 5691 5689 5688 5688 5687
5772 5770 5768 5766 5764 5762 5760 5757 5754 5752 5749 5747 5745 5743 5742 5742 5742 5742 5739 5736 5732 5725 5717 5717 5715 5714 5712 5709 5705 5702 5699 5696 5694 5692 5690 5688 5686 5685 5683 5682 5681 5680 5680
5770 5768 5766 5764 5761 5759 5757 5754 5751 5749 5746 5743 5741 5740 5738 5738 5737 5737 5735 5733 5730 5726 5717 5713 5713 5710 5707 5704 5700 5698 5694 5690 5687 5685 5683 5681 5679 5677 5675 5674 5673 5672 5671
5768 5766 5764 5761 5759 5756 5754 5750 5747 5745 5742 5739 5738 5736 5735 5735 5733 5732 5730 5728 5725 5723 5717 5709 5706 5704 5701 5699 5696 5693 5689 5686 5682 5679 5677 5675 5672 5670 5668 5666 5664 5663 5662
5765 5763 5761 5757 5755 5752 5749 5747 5744 5741 5739 5737 5734 5732 5730 5728 5726 5725 5724 5722 5720 5719 5715 5708 5702 5700 5695 5693 5689 5687 5683 5680 5677 5672 5670 5668 5666 5663 5661 5658 5656 5655 5653
5762 5759 5757 5754 5751 5748 5745 5743 5740 5736 5734 5733 5731 5728 5725 5723 5720 5719 5718 5715 5714 5711 5708 5703 5698 5693 5688 5686 5682 5678 5674 5672 5670 5667 5664 5661 5659 5656 5654 5651 5648 5646 5644
5759 5756 5752 5749 5746 5743 5740 5737 5734 5732 5729 5727 5725 5723 5720 5717 5714 5713 5711 5708 5706 5703 5699 5696 5691 5686 5681 5677 5674 5672 5667 5664 5663 5661 5657 5655 5652 5649 5646 5643 5640 5638 5635
5754 5751 5746 5742 5739 5736 5733 5731 5728 5726 5724 5722 5719 5716 5714 5711 5708 5705 5703 5701 5699 5695 5690 5687 5684 5679 5675 5673 5670 5667 5661 5657 5654 5655 5651 5648 5646 5643 5639 5636 5633 5630 5628
5748 5744 5740 5736 5732 5727 5726 5724 5722 5721 5718 5716 5713 5710 5709 5707 5703 5700 5697 5694 5691 5688 5685 5681 5676 5672 5670 5667 5664 5660 5656 5652 5650 5649 5645 5641 5639 5636 5633 5630 5627 5623 5620
5741 5738 5734 5730 5726 5722 5719 5718 5717 5715 5712 5709 5707 5705 5701 5698 5697 5693 5691 5687 5684 5680 5678 5674 5671 5667 5664 5662 5659 5656 5651 5648 5645 5642 5639 5632 5630 5627 5626 5622 5619 5616 5613
5735 5732 5728 5724 5720 5715 5713 5713 5711 5709 5706 5703 5700 5698 5695 5691 5688 5686 5683 5678 5675 5671 5669 5666 5663 5660 5656 5654 5651 5647 5643 5639 5634 5632 5630 5626 5623 5620 5617 5614 5611 5608 5605
5728 5726 5722 5718 5714 5710 5708 5706 5704 5703 5700 5696 5694 5691 5687 5683 5680 5677 5674 5670 5666 5663 5661 5658 5654 5652 5649 5647 5644 5640 5636 5631 5627 5622 5621 5618 5615 5613 5609 5607 5603 5600 5596